Weather Roundup
Issued by NWS

Home | Current Version | Previous Version | Graphics & Text | Print | Product List | Glossary Off
Versions: 1 2 3 4 5 6 7 8 9 10 11 12 13 14 15 16 17 18 19 20 21 22 23 24 25 26 27 28 29 30 31 32 33 34 35 36 37 38 39 40 41 42 43 44 45 46 47 48 49 50

000
NZUS93 KARX 061110
HRRWXR

CURRENT HOURLY OBSERVATIONS ACROSS
MUCH OF THE UPPER MISSISSIPPI VALLEY
NATIONAL WEATHER SERVICE LA CROSSE WI
600 AM CDT WED MAY 06 2015


...SOUTHEAST MINNESOTA...


CITY           SKY/WX    TMP DP  RH WIND       PRES   REMARKS
ROCHESTER      FOG       54  54 100 SE14      30.09S VSB 1/4
ROCHESTER/MAYO CLOUDY    54  54 100 SE10      30.09R VSB 1/2
WINONA         CLOUDY    54  52  94 SE8       30.11S FOG
AUSTIN         LGT RAIN  54  54 100 SE7       30.07S VSB 1/2
ALBERT LEA     FOG       55  55 100 SE13      30.06R VSB 3/4
DODGE CENTER   FOG       55  54  94 SE12      30.08R VSB 1/4
PRESTON        FOG       53  52  97 SE12      30.10S VSB 1/4
OWATONNA       CLOUDY    55  54  94 SE17      30.05S FOG
FARIBAULT      CLOUDY    55  55 100 SE8       30.06S FOG
$$

...ELSEWHERE IN MINNESOTA...


CITY           SKY/WX    TMP DP  RH WIND       PRES   REMARKS
MINNEAPOLIS    CLOUDY    56  54  93 SE13      30.06F FOG
INTNL FALLS    CLEAR     43  30  60 SE6       30.07S
DULUTH         LGT RAIN  48  35  60 SE9       30.11R
RED WING       CLOUDY    55  54  94 SE10      30.08R FOG
REDWOOD FALLS  FOG       56  55  97 SE13      30.00S VSB 1/2
MANKATO        CLOUDY    55  55 100 SE15      30.04S
WORTHINGTON    CLOUDY    61  57  88 SE14      29.97F
FAIRMONT       CLOUDY    57  54  88 SE14      30.00F
$$

...SOUTHWEST WISCONSIN...


CITY           SKY/WX    TMP DP  RH WIND       PRES   REMARKS
LA CROSSE      CLOUDY    56  53  90 E7        30.12S FOG
PRAIRIE DU CHI CLOUDY    54  52  94 SE5       30.12S FOG
BOSCOBEL       CLOUDY    54  52  93 NE3       30.14S FOG
LONE ROCK      CLOUDY    52  51  97 E10       30.15S FOG
PLATTEVILLE    CLOUDY    51  51  98 E8        30.13S VSB 1/4
FORT MC COY    CLOUDY    52  51  95 E3        30.15S FOG
CAMP DOUGLAS   CLOUDY    51  51 100 E8        30.15S
VIROQUA        CLOUDY    51  51 100 SE10      30.13S VSB 1/4
WIS DELLS      NOT AVBL
$$

...ELSEWHERE IN WISCONSIN...


CITY           SKY/WX    TMP DP  RH WIND       PRES   REMARKS
MILWAUKEE      FOG       46  43  89 CALM      30.20S VSB 1
MADISON        CLOUDY    50  47  89 E6        30.16S FOG
GREEN BAY      LGT RAIN  52  40  63 E3        30.21S
EAU CLAIRE     CLOUDY    53  50  89 E10       30.11F
BLACK RVR FLS  CLOUDY    52  52  99 E6        30.14S FOG
MEDFORD        CLOUDY    46  44  90 E6        30.17S
WAUSAU         LGT RAIN  48  43  82 E6        30.19R
WIS RAPIDS     CLOUDY    51  44  77 E8        30.18F
MARSHFIELD     CLOUDY    51  46  83 E9        30.17S
RICE LAKE      CLOUDY    51  49  90 SE10      30.14R
$$

...NORTHEAST IOWA...


CITY           SKY/WX    TMP DP  RH WIND       PRES   REMARKS
DECORAH        FOG       54  54 100 SE7G15    30.09F VSB 1/4
MASON CITY     FOG       56  56 100 SE13      30.06F VSB 1/4
CHARLES CITY   FOG       55  55 100 SE13      30.08S VSB 1/4
OELWEIN        FOG       55  55 100 SE14      30.09S VSB 1/4
$$

...ELSEWHERE IN IOWA...


CITY           SKY/WX    TMP DP  RH WIND       PRES   REMARKS
DES MOINES     MOCLDY    65  59  81 SE10      29.99F
IOWA CITY      CLOUDY    56  55  97 E5        30.10S FOG
FORT DODGE     CLOUDY    63  57  82 E16       30.00S
$$

...NORTHERN ILLINOIS...


CITY           SKY/WX    TMP DP  RH WIND       PRES   REMARKS
CHICAGO-OHARE  FOG       48  48 100 CALM      30.17S VSB 1/4
CHICAGO-MIDWAY FOG       52  51  97 E6        30.17S VSB 1/8
MOLINE         CLOUDY    56  54  93 E9        30.10F FOG
ROCKFORD       FOG       50  49  96 E5        30.18S VSB 1/2
PEORIA         PTCLDY    60  57  89 NE5       30.12R FOG
$$

NOTE: "FAIR" INDICATES FEW OR NO CLOUDS BELOW 12,000 FEET WITH NO
SIGNIFICANT WEATHER AND/OR OBSTRUCTIONS TO VISIBILITY. WIND
SPEEDS ARE IN MILES-PER-HOUR.



USA.gov is the U.S. government's official web portal to all federal, state and local government web resources and services.